Regional Weather Roundup
Issued by NWS

Home | Current Version | Previous Version | Text Only | Print | Product List | Glossary On
Versions: 1 2 3 4 5 6 7 8 9 10 11 12 13 14 15 16 17 18 19 20 21 22 23 24 25 26 27 28 29 30 31 32 33 34 35 36 37 38 39 40 41 42 43 44 45 46 47 48 49 50
000
ASUS43 KMKX 102121
RWRWI

WISCONSIN REGIONAL WEATHER ROUNDUP
NATIONAL WEATHER SERVICE MILWAUKEE/SULLIVAN WI
400 PM CDT THU JUL 10 2014

NOTE: "FAIR" INDICATES FEW OR NO CLOUDS BELOW 12,000 FEET WITH NO
SIGNIFICANT WEATHER AND/OR OBSTRUCTIONS TO VISIBILITY.

WIZ001-002-006>008-014>016-023>028-102200-
NORTHWEST WISCONSIN

CITY           SKY/WX    TMP DP  RH WIND       PRES   REMARKS
SUPERIOR ARPT  SUNNY     67  55  66 NE9       30.01F
ASHLAND        MOSUNNY   77  55  46 S7        30.03F
HAYWARD        MOSUNNY   78  55  44 S8G18     30.04F
SIREN          MOSUNNY   82  58  43 S9        30.02F HX  81
RICE LAKE      MOSUNNY   80  58  46 S7        30.05F HX  80
LADYSMITH      PTSUNNY   79  58  48 S7        30.08S HX  80
EAU CLAIRE     MOSUNNY   82  60  47 SW8       30.03F HX  82
MENOMONIE      PTCLDY    83  63  50 SE7       30.03F HX  83
NEW RICHMOND   MOSUNNY   81  63  53 S9        30.02F HX  82
OSCEOLA        MOSUNNY   83  63  51 S8        30.03F HX  84
$$

WIZ003>005-009-010-017-018-102200-
NORTH CENTRAL WISCONSIN

CITY           SKY/WX    TMP DP  RH WIND       PRES   REMARKS
WOODRUFF       MOSUNNY   80  55  42 SW7       30.10F HX  80
RHINELANDER    MOSUNNY   74  53  48 S8        30.11F
EAGLE RIVER    MOSUNNY   74  51  44 SW5       30.11S
LAND O LAKES   MOSUNNY   74  50  42 SW9       30.11F
PHILLIPS       MOSUNNY   76  57  51 S7        30.07F
TOMAHAWK       MOSUNNY   74  55  51 CALM      30.11F
MEDFORD        MOSUNNY   76  58  53 S8        30.09F
MERRILL        MOSUNNY   78  57  49 SW9       30.10F
$$

WIZ029-030-035-036-043>047-102200-
CENTRAL WISCONSIN

CITY           SKY/WX    TMP DP  RH WIND       PRES   REMARKS
WAUSAU         PTSUNNY   77  56  48 S12       30.09F
MOSINEE        MOSUNNY   75  59  57 S9        30.12F
MARSHFIELD     MOSUNNY   78  61  55 S12       30.09F HX  80
STEVENS POINT  SUNNY     76  56  49 S8        30.11F
WAUPACA        MOSUNNY   81  56  43 S7        30.11F HX  81
WAUTOMA        MOSUNNY   80  58  46 S8        30.12F HX  80
WISC RAPIDS    SUNNY     81  58  45 S9        30.10F HX  81
CAMP DOUGLAS   PTSUNNY   81  64  57 SW12      30.09F HX  82
$$

WIZ011>013-019>022-031-037>040-048>050-102200-
NORTHEAST WISCONSIN

CITY           SKY/WX    TMP DP  RH WIND       PRES   REMARKS
ANTIGO         PTSUNNY   74  56  53 SW6       30.13F
STURGEON BAY   SUNNY     66  52  59 SE15      30.16F
GREEN BAY      MOSUNNY   77  52  41 S5G17     30.13F
MANITOWOC      SUNNY     67  54  63 S14       30.17F
APPLETON       PTSUNNY   75  52  43 SE12G20   30.13F
CLINTONVILLE   MOSUNNY   77  54  44 SW8       30.11S
OSHKOSH        MOSUNNY   78  57  48 S10       30.12F
$$

WIZ032>034-041-042-053>061-102200-
SOUTHWEST WISCONSIN

CITY           SKY/WX    TMP DP  RH WIND       PRES   REMARKS
LA CROSSE      MOSUNNY   83  63  50 S12       30.06F HAZE    HX  84
SPARTA         MOSUNNY   80  60  50 S9        30.09S HX  81
VIROQUA        FAIR      78  62  57 S9        30.10F
BOSCOBEL       PTSUNNY   81  60  48 S8        30.09F HX  82
PRAIRIE DU CHI SUNNY     81  58  45 S5        30.08F HX  81
PLATTEVILLE    FAIR      79  60  52 S10       30.13F HX  80
$$

WIZ056-057-062-063-064-067-068-102200-
SOUTH CENTRAL WISCONSIN

CITY           SKY/WX    TMP DP  RH WIND       PRES   REMARKS
BARABOO/DELLS  PTSUNNY   80  59  48 S9        30.11F HX  81
LONE ROCK      MOSUNNY   83  63  50 SW6       30.10F HX  84
WATERTOWN      MOSUNNY   77  57  49 S5        30.13F
MADISON        PTSUNNY   79  58  48 S6        30.12F HX  80
MIDDLETON      FAIR      80  56  43 S8        30.12F HX  80
MONROE         PTSUNNY   77  59  53 S6        30.13F
JANESVILLE     MOSUNNY   81  55  41 SW8       30.13F HX  80
$$

WIZ051-052-058>065-066-070>072-102200-
SOUTHEAST WISCONSIN

CITY           SKY/WX    TMP DP  RH WIND       PRES   REMARKS
MILWAUKEE      MOSUNNY   70  55  59 SE14      30.17S
WAUKESHA       MOSUNNY   73  57  56 SE10      30.16S
MILWAUKEE/TIMM SUNNY     73  48  40 E13       30.17F
RACINE         SUNNY     70  57  63 SE10      30.18F
BURLINGTON     SUNNY     76  59  56 E6        30.14F
KENOSHA        SUNNY     72  57  59 E12       30.17F
FOND DU LAC    PTSUNNY   78  56  46 S7        30.13F
SHEBOYGAN      SUNNY     70  54  56 SE10      30.17S
WEST BEND      SUNNY     72  54  53 SE9       30.15F
JUNEAU         MOSUNNY   77  39  25 SW7       30.15S
$$

LSZ147-162-102200-
LAKE SUPERIOR

STATION/POSITION TIME  TEMP    WIND        PRES    WAVE
                       AIR SEA DIR/SP/G            HT/PER
                 (UTC) (F)     (DEG/KT/KT) (MB)    (FT/S)
W MID LAKE BUOY  2050   48 39  120/  8/  8 1017.9F   0
PORT WING        2000   62      20/ 12/ 13 1016.6F
SAXON HARBOR     2000           60/  5/  8 1017.3
$$

LMZ867-665-643>646-102200-
LAKE MICHIGAN

STATION/POSITION TIME  TEMP    WIND        PRES    WAVE
                       AIR SEA DIR/SP/G            HT/PER
                 (UTC) (F)     (DEG/KT/KT) (MB)    (FT/S)
N MID LAKE BUOY  2050   59 56  210/  6/  8 1021.4F   0
NORTHPORT PIER   2000   63     150/ 13/ 15 1021.7F
KEWAUNEE LAKESHO 2100   56     160/  6/  7 1022.1F
SHEBOYGAN LAKESH 2100   62     180/ 12/ 12 1021.7F
PORT WASHINGTON  2000   67     160/  3/  6 1022.4F
MILWAUKEE LAKESH 2100   61     140/  8/  9   N/A
S MID LAKE BUOY  2050   64 63  180/  2/  2 1022.3F   0
KENOSHA   LAKESH 2100   65     140/  9/ 10   N/A
$$

TC  - TEMPERATURE IN CELSIUS
VSB - VISIBILITY IN STATUTE MILES
WCI - WIND CHILL INDEX
HX  - HEAT INDEX




USA.gov is the U.S. government's official web portal to all federal, state and local government web resources and services.